ORBITAL FACTORY 2 (OF-2) (45113 NORAD) Tracking and Keplerian Element Data

This shows tracking and keplerian element data for the satellite.

Feedback or suggestion? Click here.




ElementValue
Catalog45113
NameORBITAL FACTORY 2 (OF-2)
Epoch Orbit17375
Epoch Day62.67595336
Epoch Year2023
RAAN202.1591
Inclination51.6236
Eccentricity0.0008126
Argument of Perigee332.3799
Mean Anonmoly27.6773
Mean Motion15.87744255
Decay Rate0.00582789
L11 45113U 19071C 23062.67595336 .00582789 00000+0 19863-2 0 9996
L22 45113 51.6236 202.1591 0008126 332.3799 27.6773 15.87744255173755



Live tracking and technical data element details for ORBITAL FACTORY 2 (OF-2) (NORAD 45113). ORBITAL FACTORY 2 (OF-2) can be tracked NOW for your location showing map with azimuth and elevation plus other details from your city location.







IsCatalogInMostPopularTable: catalog: 45113, numindb: 247
Update: records affected: 1



GetName: 45113 ORBITAL FACTORY 2 (OF-2)

Hit Count: updated at: Thu, 23 Jan 2025 16:11:27 GMT